Gallup, NM

12:37 AM MST on February 23, 2017 (GMT -0700)
Gallup Municipal

Weather History for KGUP - November, 2011

Change the Weather History Date:

Sunday, November 13, 2011

  Actual Average Record
Temperature  
Mean Temperature 39 °F -  
Max Temperature 48 °F 52 °F 71 °F (1999)
Min Temperature 30 °F 20 °F 3 °F (2000)
Degree Days  
Heating Degree Days 26    
Moisture  
Dew Point 37 °F    
Average Humidity 82    
Maximum Humidity 93    
Minimum Humidity 65    
Precipitation  
Precipitation 0.05 in - - ()
Sea Level Pressure  
Sea Level Pressure 29.90 in    
Wind  
Wind Speed 11 mph (SW)    
Max Wind Speed 18 mph    
Max Gust Speed 25 mph    
Visibility 10 miles    
Events Rain    
Averages and records for this station are not official NWS values.
T = Trace of Precipitation, MM = Missing Value Source: NWS Daily Summary

Daily Weather History Graph

Daily Weather History Graph

Search for Another Location

Airport or City:

Trip Planner

Search our weather history database for the weather conditions in past years. The results will help you decide how hot, cold, wet, or windy it might be!

Date:

Astronomy

Nov. 13, 2011 Rise Set
Actual Time 6:48 AM MST 5:09 PM MST
Civil Twilight 6:21 AM MST 5:36 PM MST
Nautical Twilight 5:50 AM MST 6:07 PM MST
Astronomical Twilight 5:20 AM MST 6:37 PM MST
Moon 7:25 PM MST (11/13) 9:20 AM MST (11/13)
Length of Visible Light 11h 15m
Length of Day
10h 21m
Waning Gibbous, 92% of the Moon is Illuminated
Nov 13
Waning Gibbous
Nov 18
Last Quarter
Nov 24
New
Dec 2
First Quarter
Dec 10
Full

Hourly Weather History & Observations

Time (MST) Temp. Windchill Dew Point Humidity Pressure Visibility Wind Dir Wind Speed Gust Speed Precip Events Conditions
12:53 AM 37.9 °F 30.9 °F 28.0 °F 68% 29.85 in 10.0 mi SSW 10.4 mph - N/A   Partly Cloudy
1:53 AM 39.0 °F 32.8 °F 28.0 °F 65% 29.83 in 10.0 mi SW 9.2 mph - N/A   Clear
2:53 AM 30.9 °F 26.2 °F 24.1 °F 76% 29.87 in 10.0 mi NE 4.6 mph - N/A   Clear
3:53 AM 39.9 °F 35.8 °F 30.0 °F 68% 29.80 in 10.0 mi SW 5.8 mph - N/A   Overcast
4:53 AM 39.9 °F 37.8 °F 33.1 °F 77% 29.82 in 10.0 mi WSW 3.5 mph - 0.00 in   Overcast
5:03 AM 39.2 °F 35.9 °F 33.8 °F 81% 29.98 in 10.0 mi WSW 4.6 mph - N/A   Overcast
5:53 AM 39.9 °F 35.8 °F 33.1 °F 77% 29.84 in 10.0 mi WSW 5.8 mph - N/A   Overcast
6:53 AM 39.9 °F 35.8 °F 33.1 °F 77% 29.85 in 10.0 mi SSW 5.8 mph - N/A   Overcast
7:26 AM 41.0 °F 34.7 °F 35.6 °F 81% 29.96 in 10.0 mi SW 10.4 mph - N/A   Overcast
7:45 AM 41.0 °F 35.2 °F 35.6 °F 81% 29.98 in 10.0 mi SW 9.2 mph - N/A   Overcast
7:53 AM 41.0 °F 33.5 °F 36.0 °F 82% 29.88 in 10.0 mi SW 13.8 mph - N/A   Overcast
8:53 AM 42.1 °F 36.6 °F 37.9 °F 85% 29.86 in 10.0 mi WSW 9.2 mph - 0.00 in Rain Light Rain
9:53 AM 42.1 °F 35.2 °F 39.0 °F 89% 29.90 in 10.0 mi SW 12.7 mph - 0.00 in Rain Light Rain
10:00 AM 42.8 °F 35.8 °F 39.2 °F 87% 29.99 in 10.0 mi SW 13.8 mph - 0.00 in Rain Light Rain
10:20 AM 42.8 °F 35.1 °F 39.2 °F 87% 29.99 in 10.0 mi SW 16.1 mph 24.2 mph 0.00 in Rain Light Rain
10:53 AM 44.1 °F 36.2 °F 41.0 °F 89% 29.88 in 10.0 mi SW 18.4 mph 24.2 mph 0.01 in   Overcast
11:22 AM 44.6 °F 37.8 °F 39.2 °F 81% 29.99 in 10.0 mi WSW 15.0 mph 23.0 mph 0.00 in   Overcast
11:53 AM 43.0 °F 35.7 °F 39.9 °F 89% 29.90 in 10.0 mi WSW 15.0 mph - 0.00 in Rain Light Rain
12:53 PM 45.0 °F 37.6 °F 41.0 °F 86% 29.85 in 10.0 mi SW 17.3 mph 21.9 mph 0.00 in   Overcast
1:53 PM 48.9 °F - 41.0 °F 74% 29.79 in 10.0 mi WSW 17.3 mph 25.3 mph 0.00 in   Overcast
2:03 PM 48.2 °F - 39.2 °F 71% 29.94 in 10.0 mi WSW 18.4 mph 25.3 mph N/A   Overcast
2:53 PM 45.0 °F 38.9 °F 42.1 °F 90% 29.88 in 10.0 mi WSW 12.7 mph - 0.02 in Rain Light Rain
3:53 PM 45.0 °F 38.9 °F 41.0 °F 86% 29.82 in 10.0 mi WSW 12.7 mph 20.7 mph 0.00 in Rain Light Rain
4:06 PM 44.6 °F 37.8 °F 39.2 °F 81% 29.94 in 10.0 mi WSW 15.0 mph - N/A Rain Light Rain
4:23 PM 44.6 °F 38.1 °F 39.2 °F 81% 29.94 in 10.0 mi WSW 13.8 mph - 0.01 in Rain Light Rain
4:53 PM 44.1 °F 37.7 °F 39.9 °F 85% 29.83 in 10.0 mi WSW 12.7 mph - 0.01 in Rain Light Rain
5:30 PM 44.6 °F 38.8 °F 39.2 °F 81% 29.94 in 10.0 mi WSW 11.5 mph - 0.00 in Rain Light Rain
5:38 PM 44.6 °F 38.4 °F 39.2 °F 81% 29.94 in 10.0 mi WSW 12.7 mph 19.6 mph 0.01 in Rain Light Rain
5:53 PM 43.0 °F 37.2 °F 39.9 °F 89% 29.83 in 10.0 mi SW 10.4 mph - 0.01 in Rain Light Rain
6:35 PM 44.6 °F 38.8 °F 39.2 °F 81% 29.95 in 10.0 mi WSW 11.5 mph - N/A   Overcast
6:53 PM 44.1 °F 39.5 °F 41.0 °F 89% 29.85 in 10.0 mi SW 8.1 mph - N/A   Overcast
7:26 PM 42.8 °F 35.1 °F 39.2 °F 87% 29.96 in 10.0 mi SW 16.1 mph 21.9 mph N/A   Mostly Cloudy
7:53 PM 44.1 °F 37.4 °F 39.9 °F 85% 29.84 in 10.0 mi SW 13.8 mph 25.3 mph N/A   Overcast
8:11 PM 44.6 °F 37.2 °F 39.2 °F 81% 29.97 in 10.0 mi WSW 17.3 mph - N/A   Overcast
8:29 PM 44.6 °F 38.1 °F 39.2 °F 81% 29.98 in 10.0 mi WSW 13.8 mph - N/A   Overcast
8:53 PM 43.0 °F 36.8 °F 39.0 °F 86% 29.87 in 10.0 mi SW 11.5 mph - N/A   Overcast
9:06 PM 42.8 °F 35.8 °F 39.2 °F 87% 29.99 in 10.0 mi WSW 13.8 mph - N/A   Overcast
9:39 PM 42.8 °F 35.8 °F 37.4 °F 81% 29.99 in 10.0 mi WSW 13.8 mph - 0.00 in Rain Light Rain
9:53 PM 42.1 °F 35.2 °F 37.9 °F 85% 29.89 in 10.0 mi WSW 12.7 mph - 0.00 in   Mostly Cloudy
10:53 PM 42.1 °F 35.7 °F 37.0 °F 82% 29.89 in 10.0 mi SW 11.5 mph - N/A   Overcast
11:38 PM 39.2 °F 33.6 °F 37.4 °F 93% 30.00 in 10.0 mi SW 8.1 mph - N/A   Mostly Cloudy
11:53 PM 39.0 °F 33.4 °F 36.0 °F 89% 29.92 in 10.0 mi SW 8.1 mph - N/A   Mostly Cloudy